Location: Aalen
(48.8330°N, 10.1000°E)
Time: 01:12:47
(UTC+02:00)

Transit 4A - Pass Details

Date: 10 August 2021
Orbit: 870 x 974 km, 66.8° (Epoch: 26 September)

Event Time Altitude Azimuth Distance (km) Brightness Sun altitude
Rises 01:56:07 0° 272° (W) 3,468 10.8 -25.2°
Reaches altitude 10° 01:59:22 10° 290° (WNW) 2,525 10.3 -25.2°
Maximum altitude 02:03:28 19° 335° (NNW) 1,943 10.2 -25.0°
Drops below altitude 10° 02:07:36 10° 20° (NNE) 2,532 11.2 -24.9°
Sets 02:10:52 0° 38° (NE) 3,480 11.9 -24.8°
